W0WC Weather Reports


time (UTC)temp
F
wind
direction
speed
knots
gust
knots
rain 1hr
in
rain 24hr
in
rain mn
in
humidity
%
barometer
mb
20260831163724 96 209 6.1 9.6 0.00 0.00 0.00 37 1018.5
20260831163220 96 162 5.2 7.0 0.00 0.00 0.00 38 1018.3
20260831162718 95 332 3.5 5.2 0.00 0.00 0.00 38 1018.4
20260831162217 95 304 1.7 1.7 0.00 0.00 0.00 39 1018.5
20260831161712 94 117 2.6 3.5 0.00 0.00 0.00 40 1018.7
20260831161209 94 197 3.5 5.2 0.00 0.00 0.00 40 1018.6
20260831160708 94 130 4.3 7.8 0.00 0.00 0.00 40 1018.6
20260831160204 93 24 1.7 2.6 0.00 0.00 0.00 41 1018.5
20260831155703 93 239 4.3 6.1 0.00 0.00 0.00 41 1018.7
20260831155159 93 153 5.2 7.8 0.00 0.00 0.00 42 1018.7
20260831154654 92 312 1.7 1.7 0.00 0.00 0.00 45 1018.7
20260831154150 92 220 5.2 7.8 0.00 0.00 0.00 44 1018.7
20260831153648 91 183 7.0 8.7 0.00 0.00 0.00 45 1018.6
20260831153145 92 203 5.2 7.0 0.00 0.00 0.00 44 1018.6
20260831152640 91 216 5.2 6.1 0.00 0.00 0.00 45 1018.4
20260831152137 90 237 3.5 3.5 0.00 0.00 0.00 46 1018.7
20260831151636 90 219 4.3 7.8 0.00 0.00 0.00 46 1018.5
20260831151131 90 176 3.5 5.2 0.00 0.00 0.00 47 1018.4
20260831150626 89 242 6.1 7.8 0.00 0.00 0.00 47 1018.5
20260831150122 89 201 6.1 7.8 0.00 0.00 0.00 47 1018.4
20260831145621 89 262 5.2 6.1 0.00 0.00 0.00 47 1018.4
20260831145118 89 214 6.1 7.8 0.00 0.00 0.00 48 1018.4
20260831144613 89 102 3.5 5.2 0.00 0.00 0.00 48 1018.6
20260831144109 89 259 3.5 3.5 0.00 0.00 0.00 48 1018.3
20260831143608 88 171 1.7 3.5 0.00 0.00 0.00 48 1018.5
20260831143104 88 229 2.6 2.6 0.00 0.00 0.00 49 1018.6
20260831142601 87 100 4.3 6.1 0.00 0.00 0.00 50 1018.4
20260831142056 87 56 1.7 2.6 0.00 0.00 0.00 51 1018.4
20260831141554 86 231 5.2 8.7 0.00 0.00 0.00 51 1018.3
20260831141050 86 220 3.5 5.2 0.00 0.00 0.00 52 1018.5
20260831140549 85 218 7.0 8.7 0.00 0.00 0.00 52 1018.4
20260831140049 85 113 4.3 6.1 0.00 0.00 0.00 53 1018.3
20260831135547 85 221 6.1 9.6 0.00 0.00 0.00 53 1018.2
20260831135043 84 326 0.9 1.7 0.00 0.00 0.00 54 1018.3
20260831134539 84 132 3.5 5.2 0.00 0.00 0.00 54 1018.2
20260831134039 84 103 3.5 3.5 0.00 0.00 0.00 54 1018.2
20260831133538 84 186 1.7 1.7 0.00 0.00 0.00 54 1018.2
20260831133033 83 73 3.5 3.5 0.00 0.00 0.00 55 1018.2
20260831132530 83 195 4.3 6.1 0.00 0.00 0.00 55 1018.1
20260831132029 82 194 2.6 2.6 0.00 0.00 0.00 55 1018.3
20260831131529 82 193 5.2 7.0 0.00 0.00 0.00 55 1018.2
20260831131026 82 66 1.7 1.7 0.00 0.00 0.00 56 1018.0
20260831130525 82 307 2.6 2.6 0.00 0.00 0.00 56 1017.9
20260831130021 82 234 2.6 3.5 0.00 0.00 0.00 56 1018.0
20260831125514 81 197 2.6 2.6 0.00 0.00 0.00 56 1017.9
20260831125010 81 183 2.6 5.2 0.00 0.00 0.00 56 1017.6
20260831124507 81 0 2.6 3.5 0.00 0.00 0.00 56 1017.8
20260831124002 80 179 3.5 5.2 0.00 0.00 0.00 57 1017.6
20260831123501 80 145 1.7 2.6 0.00 0.00 0.00 57 1017.6
20260831122955 80 163 1.7 2.6 0.00 0.00 0.00 57 1017.3
20260831122451 80 100 1.7 1.7 0.00 0.00 0.00 57 1017.4
20260831121946 80 174 3.5 3.5 0.00 0.00 0.00 57 1017.4
20260831121441 79 207 3.5 3.5 0.00 0.00 0.00 58 1017.0
20260831120937 79 81 3.5 3.5 0.00 0.00 0.00 57 1017.0
20260831120431 79 130 1.7 1.7 0.00 0.00 0.00 57 1017.1
20260831115931 79 134 3.5 5.2 0.00 0.00 0.00 57 1016.7
20260831115427 79 198 1.7 3.5 0.00 0.00 0.00 57 1017.1
20260831114927 79 180 3.5 5.2 0.00 0.00 0.00 57 1016.7
20260831114426 79 187 3.5 6.1 0.00 0.00 0.00 57 1016.8
20260831113922 79 154 3.5 5.2 0.00 0.00 0.00 57 1016.8
20260831113422 80 153 1.7 1.7 0.00 0.00 0.00 56 1016.6
20260831112917 80 167 2.6 3.5 0.00 0.00 0.00 56 1016.5
20260831112417 80 282 1.7 1.7 0.00 0.00 0.00 56 1016.7
20260831111912 80 236 1.7 2.6 0.00 0.00 0.00 56 1016.6
20260831111408 80 45 2.6 3.5 0.00 0.00 0.00 56 1016.5
20260831110904 80 52 1.7 2.6 0.00 0.00 0.00 55 1016.4
20260831110403 80 156 2.6 2.6 0.00 0.00 0.00 55 1016.6
20260831105902 80 70 0.9 1.7 0.00 0.00 0.00 55 1016.5
20260831105358 80 183 3.5 3.5 0.00 0.00 0.00 55 1016.2
20260831104853 80 182 5.2 7.0 0.00 0.00 0.00 55 1016.4
20260831104349 80 121 3.5 5.2 0.00 0.00 0.00 55 1016.2
20260831103844 80 208 3.5 3.5 0.00 0.00 0.00 55 1016.3
20260831103339 80 138 3.5 5.2 0.00 0.00 0.00 55 1016.3
20260831102834 80 189 2.6 3.5 0.00 0.00 0.00 54 1016.4
20260831102329 80 142 0.9 1.7 0.00 0.00 0.00 54 1016.3
20260831101825 80 74 1.7 1.7 0.00 0.00 0.00 54 1016.3
20260831101320 80 186 4.3 6.1 0.00 0.00 0.00 54 1016.1
20260831100816 80 162 4.3 7.0 0.00 0.00 0.00 53 1016.2
20260831100312 80 331 1.7 2.6 0.00 0.00 0.00 53 1016.3
20260831095811 80 199 0.9 1.7 0.00 0.00 0.00 53 1016.1
20260831095306 80 202 5.2 7.0 0.00 0.00 0.00 52 1016.0
20260831094801 80 231 2.6 3.5 0.00 0.00 0.00 52 1016.1
20260831094256 81 108 1.7 1.7 0.00 0.00 0.00 52 1015.9
20260831093752 81 95 2.6 2.6 0.00 0.00 0.00 52 1016.0
20260831093252 81 146 3.5 3.5 0.00 0.00 0.00 51 1016.0
20260831092749 81 178 1.7 1.7 0.00 0.00 0.00 51 1016.0
20260831092244 81 81 2.6 3.5 0.00 0.00 0.00 51 1016.0
20260831091743 81 28 1.7 1.7 0.00 0.00 0.00 50 1016.0
20260831091240 81 179 5.2 7.0 0.00 0.00 0.00 50 1016.0
20260831090735 81 131 1.7 2.6 0.00 0.00 0.00 50 1016.0
20260831090231 81 117 1.7 2.6 0.00 0.00 0.00 50 1015.9
20260831085727 81 127 1.7 1.7 0.00 0.00 0.00 49 1015.8
20260831085221 82 174 1.7 2.6 0.00 0.00 0.00 49 1015.9
20260831084716 82 68 2.6 3.5 0.00 0.00 0.00 49 1015.9
20260831084213 82 85 3.5 6.1 0.00 0.00 0.00 48 1015.6
20260831083708 82 243 3.5 5.2 0.00 0.00 0.00 48 1015.7
20260831083204 82 158 3.5 3.5 0.00 0.00 0.00 48 1016.0
20260831082702 82 249 2.6 2.6 0.00 0.00 0.00 48 1015.8
20260831082158 82 99 3.5 5.2 0.00 0.00 0.00 47 1015.6
20260831081653 82 201 1.7 2.6 0.00 0.00 0.00 47 1015.8
20260831081149 82 135 3.5 7.0 0.00 0.00 0.00 47 1015.6
20260831080644 83 153 3.5 5.2 0.00 0.00 0.00 47 1015.5
20260831080139 83 134 2.6 3.5 0.00 0.00 0.00 47 1015.5
20260831075635 83 96 1.7 2.6 0.00 0.00 0.00 47 1015.6
20260831075130 83 261 2.6 3.5 0.00 0.00 0.00 47 1015.5
20260831074629 83 164 2.6 2.6 0.00 0.00 0.00 48 1015.5
20260831074124 83 283 1.7 1.7 0.00 0.00 0.00 48 1015.4
20260831073624 83 165 7.0 7.8 0.00 0.00 0.00 48 1015.5
20260831073124 82 147 4.3 5.2 0.00 0.00 0.00 48 1015.5
20260831072620 82 238 2.6 2.6 0.00 0.00 0.00 49 1015.5
20260831072116 83 125 1.7 2.6 0.00 0.00 0.00 49 1015.4
20260831071614 83 168 4.3 7.0 0.00 0.00 0.00 49 1015.4
20260831071110 83 156 5.2 6.1 0.00 0.00 0.00 48 1015.4
20260831070609 83 147 7.0 8.7 0.00 0.00 0.00 48 1015.3
20260831070104 83 166 3.5 6.1 0.00 0.00 0.00 48 1015.4
20260831065602 83 90 1.7 2.6 0.00 0.00 0.00 49 1015.6
20260831065056 83 207 1.7 3.5 0.00 0.00 0.00 49 1015.6
20260831064551 83 130 3.5 5.2 0.00 0.00 0.00 49 1015.6
20260831064047 83 172 4.3 5.2 0.00 0.00 0.00 49 1015.5
20260831063542 83 135 2.6 5.2 0.00 0.00 0.00 49 1015.4
20260831063037 83 107 5.2 6.1 0.00 0.00 0.00 49 1015.4
20260831062532 83 177 5.2 7.0 0.00 0.00 0.00 50 1015.4
20260831062031 83 135 6.1 8.7 0.00 0.00 0.00 50 1015.4
20260831061524 83 183 4.3 6.1 0.00 0.00 0.00 50 1015.5
20260831061020 83 126 1.7 1.7 0.00 0.00 0.00 50 1015.5
20260831060520 83 153 5.2 6.1 0.00 0.00 0.00 50 1015.4
20260831060016 83 131 1.7 2.6 0.00 0.00 0.00 50 1015.6
20260831055509 83 108 1.7 2.6 0.00 0.00 0.00 50 1015.7
20260831055005 83 136 3.5 5.2 0.00 0.00 0.00 50 1015.5
20260831054459 83 107 4.3 7.8 0.00 0.00 0.00 50 1015.7
20260831053958 84 104 3.5 3.5 0.00 0.00 0.00 50 1015.6
20260831053456 84 145 4.3 5.2 0.00 0.00 0.00 50 1015.6
20260831052952 84 178 1.7 2.6 0.00 0.00 0.00 49 1015.6
20260831052451 84 68 3.5 5.2 0.00 0.00 0.00 49 1015.7
20260831051949 84 199 3.5 5.2 0.00 0.00 0.00 49 1015.6
20260831051448 84 122 3.5 6.1 0.00 0.00 0.00 48 1015.5
20260831050943 84 124 2.6 3.5 0.00 0.00 0.00 48 1015.6
20260831050443 84 75 1.7 2.6 0.00 0.00 0.00 48 1015.4
20260831045941 84 198 5.2 7.0 0.00 0.00 0.00 48 1015.4
20260831045441 85 166 5.2 7.0 0.00 0.00 0.00 47 1015.5
20260831044936 85 146 3.5 3.5 0.00 0.00 0.00 47 1015.6
20260831044431 85 58 3.5 6.1 0.00 0.00 0.00 46 1015.2
20260831043927 85 103 2.6 2.6 0.00 0.00 0.00 46 1015.3
20260831043426 86 204 3.5 3.5 0.00 0.00 0.00 45 1015.3
20260831042922 86 166 3.5 3.5 0.00 0.00 0.00 45 1015.3
20260831042421 86 138 4.3 6.1 0.00 0.00 0.00 44 1015.3
20260831041916 86 105 3.5 5.2 0.00 0.00 0.00 44 1015.2
20260831041416 86 144 1.7 2.6 0.00 0.00 0.00 43 1015.3
20260831040912 86 201 5.2 6.1 0.00 0.00 0.00 43 1015.2
20260831040412 87 50 1.7 2.6 0.00 0.00 0.00 42 1015.2
20260831035909 87 138 2.6 2.6 0.00 0.00 0.00 42 1015.1
20260831035409 87 116 5.2 6.1 0.00 0.00 0.00 42 1015.2
20260831034908 87 37 0.9 1.7 0.00 0.00 0.00 42 1015.1
20260831034404 87 63 0.9 0.9 0.00 0.00 0.00 42 1015.1
20260831033859 87 136 2.6 3.5 0.00 0.00 0.00 42 1015.0
20260831033354 87 19 0.0 0.0 0.00 0.00 0.00 42 1014.7
20260831032850 87 36 0.9 0.9 0.00 0.00 0.00 42 1015.0
20260831032349 87 187 1.7 3.5 0.00 0.00 0.00 42 1014.9
20260831031845 88 54 1.7 2.6 0.00 0.00 0.00 42 1014.6
20260831031344 88 28 0.9 0.9 0.00 0.00 0.00 41 1014.8
20260831030839 88 146 1.7 1.7 0.00 0.00 0.00 41 1014.7
20260831030338 89 22 0.0 0.9 0.00 0.00 0.00 41 1014.9
20260831025837 89 91 1.7 1.7 0.00 0.00 0.00 40 1014.7
20260831025332 89 188 1.7 2.6 0.00 0.00 0.00 40 1014.7
20260831024827 89 32 0.9 0.9 0.00 0.00 0.00 40 1014.7
20260831024326 89 44 0.9 1.7 0.00 0.00 0.00 40 1014.6
20260831023825 89 28 0.9 1.7 0.00 0.00 0.00 40 1014.5
20260831023324 89 46 0.9 1.7 0.00 0.00 0.00 40 1014.4
20260831022820 90 47 0.9 0.9 0.00 0.00 0.00 40 1014.1
20260831022319 90 38 0.9 0.9 0.00 0.00 0.00 40 1014.4
20260831021814 90 127 1.7 3.5 0.00 0.00 0.00 39 1014.4
20260831021313 90 120 1.7 2.6 0.00 0.00 0.00 39 1014.2
20260831020809 90 81 0.9 1.7 0.00 0.00 0.00 39 1014.1
20260831020308 90 31 1.7 2.6 0.00 0.00 0.00 39 1014.2
20260831015804 91 345 0.0 0.9 0.00 0.00 0.00 39 1014.1
20260831015300 91 64 0.9 0.9 0.00 0.00 0.00 39 1014.0
20260831014759 91 198 3.5 5.2 0.00 0.00 0.00 39 1013.9
20260831014254 91 45 0.9 0.9 0.00 0.00 0.00 39 1013.9
20260831013751 91 15 0.0 0.0 0.00 0.00 0.00 39 1013.8
20260831013250 91 12 0.0 0.9 0.00 0.00 0.00 39 1013.7
20260831012745 92 19 0.0 0.0 0.00 0.00 0.00 38 1013.9
20260831012240 92 38 0.9 0.9 0.00 0.00 0.00 37 1013.9
20260831011739 93 327 0.9 0.9 0.00 0.00 0.00 37 1013.7
20260831011235 93 42 0.9 0.9 0.00 0.00 0.00 37 1014.0
20260831010731 93 46 1.7 1.7 0.00 0.00 0.00 36 1013.6
20260831010231 94 148 2.6 3.5 0.00 0.00 0.00 36 1013.9
20260831005726 94 46 1.7 2.6 0.00 0.00 0.00 35 1013.8
20260831005221 95 188 1.7 3.5 0.00 0.00 0.00 35 1013.7
20260831004717 95 308 0.9 1.7 0.00 0.00 0.00 34 1013.8
20260831004213 95 170 1.7 1.7 0.00 0.00 0.00 34 1013.9
20260831003708 96 66 0.9 1.7 0.00 0.00 0.00 34 1013.8
20260831003205 96 76 2.6 3.5 0.00 0.00 0.00 33 1013.8
20260831002703 96 214 3.5 6.1 0.00 0.00 0.00 33 1013.7
20260831002158 97 94 3.5 5.2 0.00 0.00 0.00 32 1013.8
20260831001654 97 125 3.5 5.2 0.00 0.00 0.00 32 1013.7
20260831001149 97 74 2.6 2.6 0.00 0.00 0.00 32 1013.7
20260831000646 97 161 4.3 6.1 0.00 0.00 0.00 32 1013.6
20260831000146 98 107 5.2 6.1 0.00 0.00 0.00 31 1013.8
20260830235644 98 157 4.3 5.2 0.00 0.00 0.00 31 1013.9
20260830235140 98 156 2.6 2.6 0.00 0.00 0.00 31 1013.6
20260830234635 98 133 3.5 3.5 0.00 0.00 0.00 31 1013.7
20260830234130 99 167 4.3 6.1 0.00 0.00 0.00 30 1013.8
20260830233626 99 184 6.1 8.7 0.00 0.00 0.00 31 1013.7
20260830233121 99 142 3.5 5.2 0.00 0.00 0.00 30 1013.7
20260830232617 100 186 4.3 5.2 0.00 0.00 0.00 30 1013.7
20260830232113 100 223 5.2 7.8 0.00 0.00 0.00 29 1013.8
20260830231608 100 169 3.5 3.5 0.00 0.00 0.00 29 1013.7
20260830231108 100 156 7.8 9.6 0.00 0.00 0.00 29 1013.8
20260830230603 100 151 3.5 5.2 0.00 0.00 0.00 28 1013.7
20260830230058 101 196 3.5 3.5 0.00 0.00 0.00 29 1014.0
20260830225553 100 125 1.7 2.6 0.00 0.00 0.00 30 1013.7
20260830225053 100 227 7.8 11.3 0.00 0.00 0.00 30 1013.6
20260830224551 100 180 4.3 7.0 0.00 0.00 0.00 30 1013.6
20260830224049 99 200 2.6 2.6 0.00 0.00 0.00 31 1013.6
20260830223546 99 213 5.2 7.0 0.00 0.00 0.00 31 1013.7
20260830223045 100 169 3.5 6.1 0.00 0.00 0.00 30 1013.8
20260830222539 100 137 3.5 6.1 0.00 0.00 0.00 30 1013.7
20260830222036 101 90 4.3 7.8 0.00 0.00 0.00 29 1013.9
20260830221531 101 177 6.1 7.8 0.00 0.00 0.00 29 1013.7
20260830221027 101 134 2.6 2.6 0.00 0.00 0.00 30 1013.7
20260830220527 101 222 4.3 6.1 0.00 0.00 0.00 30 1013.8
20260830220025 101 192 5.2 7.0 0.00 0.00 0.00 30 1013.9
20260830215520 101 162 3.5 3.5 0.00 0.00 0.00 30 1013.9
20260830215014 101 296 1.7 1.7 0.00 0.00 0.00 30 1013.8
20260830214509 101 229 7.0 12.2 0.00 0.00 0.00 29 1014.0
20260830214004 101 153 1.7 3.5 0.00 0.00 0.00 30 1013.9
20260830213458 101 28 0.9 0.9 0.00 0.00 0.00 30 1014.0
20260830212954 102 195 1.7 2.6 0.00 0.00 0.00 29 1014.0
20260830212449 102 215 3.5 5.2 0.00 0.00 0.00 29 1013.9
20260830211949 102 189 3.5 3.5 0.00 0.00 0.00 29 1014.4
20260830211444 100 204 6.1 7.0 0.00 0.00 0.00 29 1013.9
20260830210939 101 164 7.8 8.7 0.00 0.00 0.00 28 1014.4
20260830210439 101 218 7.0 7.8 0.00 0.00 0.00 29 1014.2
20260830205937 102 135 5.2 7.8 0.00 0.00 0.00 27 1014.4
20260830205436 101 96 3.5 3.5 0.00 0.00 0.00 28 1014.6
20260830204931 102 204 7.0 7.8 0.00 0.00 0.00 27 1014.4
20260830204431 101 172 5.2 7.8 0.00 0.00 0.00 28 1014.5
20260830203925 101 166 2.6 2.6 0.00 0.00 0.00 29 1014.6
20260830203422 100 159 7.0 12.2 0.00 0.00 0.00 30 1014.6
20260830202921 100 219 5.2 6.1 0.00 0.00 0.00 29 1014.6
20260830202417 100 251 5.2 6.1 0.00 0.00 0.00 29 1014.8
20260830201913 101 189 7.8 8.7 0.00 0.00 0.00 29 1014.8
20260830201412 101 144 4.3 5.2 0.00 0.00 0.00 30 1014.9
20260830200908 101 199 5.2 8.7 0.00 0.00 0.00 31 1014.9
20260830200408 101 231 2.6 3.5 0.00 0.00 0.00 31 1014.9
20260830195903 100 68 6.1 8.7 0.00 0.00 0.00 32 1014.9
20260830195402 100 216 1.7 2.6 0.00 0.00 0.00 32 1015.1
20260830194901 102 210 2.6 5.2 0.00 0.00 0.00 30 1015.1
20260830194400 101 340 0.9 0.9 0.00 0.00 0.00 32 1015.1
20260830193855 101 116 3.5 5.2 0.00 0.00 0.00 32 1015.2
20260830193354 100 210 2.6 3.5 0.00 0.00 0.00 32 1015.1
20260830192850 101 194 1.7 3.5 0.00 0.00 0.00 32 1015.3
20260830192350 99 234 2.6 3.5 0.00 0.00 0.00 32 1015.1
20260830191846 100 167 5.2 6.1 0.00 0.00 0.00 33 1015.3
20260830191345 99 269 2.6 3.5 0.00 0.00 0.00 33 1015.4
20260830190841 100 255 3.5 6.1 0.00 0.00 0.00 32 1015.2
20260830190336 98 215 3.5 5.2 0.00 0.00 0.00 34 1015.5
20260830185834 98 243 3.5 6.1 0.00 0.00 0.00 34 1015.4
20260830185330 99 160 7.8 11.3 0.00 0.00 0.00 34 1015.5
20260830184825 99 262 3.5 5.2 0.00 0.00 0.00 34 1015.6
20260830184324 98 231 1.7 1.7 0.00 0.00 0.00 35 1015.6
20260830183813 97 0 1.7 2.6 0.00 0.00 0.00 36 1015.7
20260830183313 98 213 4.3 7.0 0.00 0.00 0.00 35 1015.8
20260830182808 97 215 7.0 11.3 0.00 0.00 0.00 35 1016.0
20260830182306 97 49 2.6 5.2 0.00 0.00 0.00 36 1015.9
20260830181800 98 241 6.1 9.6 0.00 0.00 0.00 35 1016.1
20260830181255 98 237 5.2 7.0 0.00 0.00 0.00 35 1016.0
20260830180754 97 286 3.5 3.5 0.00 0.00 0.00 35 1015.8
20260830180250 96 216 3.5 6.1 0.00 0.00 0.00 35 1016.1
20260830175743 97 9 5.2 7.0 0.00 0.00 0.00 36 1016.4
20260830175238 96 5 2.6 2.6 0.00 0.00 0.00 36 1016.0
20260830174733 96 193 3.5 5.2 0.00 0.00 0.00 36 1016.4
20260830174229 96 256 5.2 6.1 0.00 0.00 0.00 36 1016.4
20260830173728 96 213 7.0 11.3 0.00 0.00 0.00 35 1016.5
20260830173224 95 280 5.2 8.7 0.00 0.00 0.00 36 1016.4
20260830172720 96 182 9.6 14.8 0.00 0.00 0.00 36 1016.6
20260830172217 96 348 3.5 5.2 0.00 0.00 0.00 36 1016.6
20260830171712 95 356 5.2 7.0 0.00 0.00 0.00 36 1016.7
20260830171207 94 226 5.2 7.0 0.00 0.00 0.00 36 1016.9
20260830170702 95 144 5.2 7.0 0.00 0.00 0.00 37 1016.9
20260830170201 95 143 7.8 11.3 0.00 0.00 0.00 36 1017.0
20260830165700 95 210 3.5 5.2 0.00 0.00 0.00 36 1016.9
20260830165157 95 174 6.1 7.8 0.00 0.00 0.00 36 1017.1
20260830164653 94 204 4.3 6.1 0.00 0.00 0.00 37 1017.0